Home   Weather   Arrecife   Past weeks

Flag for Spain Past Weather in Arrecife, Canary Islands, Spain — Yesterday and Last 2 Weeks

Now
68 °F

Passing clouds.


Feels Like: 68 °F
Forecast: 66 / 75 °F
Wind: 5 mph from West

Location: Lanzarote / Aeropuerto

Current Time: Apr 28, 2017 at 7:26:49 am

Latest Report: Apr 28, 2017 at 6:30 am


Visibility: N/A

Pressure: 29.83 "Hg

Humidity: 88%

Dew Point: 64 °F

Location of ArrecifeLocation

Past Weather in Arrecife — Graph

°F

Arrecife Temperature Yesterday

Maximum temperature yesterday: 77 °F (at 1:00 pm)
Minimum temperature yesterday: 66 °F (at 6:00 am)
Average temperature yesterday: 72 °F

High & Low Weather Summary for the Past Weeks

 TemperatureHumidityPressure
High81 °F (Apr 17, 3:30 pm)94% (Apr 14, 7:30 am)30.18 "Hg (Apr 14, 7:30 am)
Low61 °F (Apr 13, 7:00 am)24% (Apr 16, 11:00 pm)29.77 "Hg (Apr 17, 4:00 pm)
Average70 °F72%29.96 "Hg
* Reported Apr 13 6:00 am — Apr 28 6:00 am, Arrecife, Weather by CustomWeather, © 2017

Note: Actual official high and low records may vary slightly from our data, if they occured in-between our weather recording intervals... More about our weather records

Advertising

Arrecife Weather History for the Previous 24 Hours

Scroll right to see more
 ConditionsComfort  
Time TempWeatherWind HumidityBarometerVisibility
6:00 am
Fri, Apr 28
68 °FPassing clouds.3 mph94%29.83 "HgN/A
1:00 am70 °FPassing clouds.7 mph88%29.89 "HgN/A
12:30 am70 °FPassing clouds.6 mph88%29.89 "HgN/A
12:00 am70 °FPassing clouds.8 mph88%29.89 "HgN/A
11:30 pm
Thu, Apr 27
70 °FPassing clouds.10 mph88%29.89 "HgN/A
11:00 pm70 °FPassing clouds.8 mph88%29.86 "HgN/A
10:30 pm72 °FPassing clouds.5 mph83%29.86 "HgN/A
10:00 pm72 °FPassing clouds.6 mph78%29.86 "HgN/A
9:30 pm72 °FPassing clouds.6 mph78%29.86 "HgN/A
9:00 pm72 °FPassing clouds.6 mph78%29.83 "HgN/A
8:30 pm72 °FPassing clouds.12 mph78%29.83 "HgN/A
8:00 pm72 °FPassing clouds.15 mph83%29.83 "HgN/A
7:30 pm73 °FPassing clouds.16 mph78%29.80 "HgN/A
7:00 pm73 °FPassing clouds.17 mph78%29.80 "HgN/A
6:30 pm75 °FPassing clouds.18 mph74%29.80 "HgN/A
6:00 pm75 °FPassing clouds.18 mph74%29.80 "HgN/A
5:30 pm75 °FScattered clouds.20 mph74%29.80 "HgN/A
5:00 pm77 °FScattered clouds.18 mph69%29.80 "HgN/A
4:30 pm77 °FScattered clouds.20 mph69%29.80 "HgN/A
4:00 pm77 °FPassing clouds.21 mph69%29.83 "HgN/A
3:30 pm77 °FPassing clouds.21 mph69%29.83 "HgN/A
3:00 pm77 °FPassing clouds.22 mph69%29.83 "HgN/A
2:30 pm77 °FScattered clouds.21 mph69%29.83 "HgN/A
1:30 pm77 °FScattered clouds.18 mph69%29.86 "HgN/A
1:00 pm77 °FPartly sunny.17 mph69%29.86 "HgN/A
12:30 pm73 °FBroken clouds.12 mph78%29.86 "HgN/A
12:00 pm73 °FBroken clouds.10 mph83%29.86 "HgN/A
11:30 am73 °FPartly sunny.9 mph83%29.86 "HgN/A
11:00 am75 °FScattered clouds.8 mph78%29.86 "HgN/A
10:30 am72 °FPartly sunny.9 mph83%29.86 "HgN/A
10:00 am72 °FPartly sunny.9 mph88%29.86 "HgN/A
9:30 am72 °FScattered clouds.9 mph88%29.83 "HgN/A
9:00 am70 °FScattered clouds.No wind88%29.83 "HgN/A
8:30 am68 °FPartly sunny.2 mph94%29.83 "HgN/A
8:00 am68 °FPartly sunny.No wind88%29.83 "HgN/A
7:30 am68 °FPartly sunny.2 mph88%29.83 "HgN/A
7:00 am66 °FPassing clouds.2 mph88%29.83 "HgN/A
Weather by CustomWeather, © 2017

See weather overviewHow to use our weather pages